"startDT [UTC]","vpos","CH4 [ppm]","stdev(CH4) [ppm]","CO2 [ppm]","stdev(CO2) [ppm]","H2O [ppm]","stdev(H2O)","p_LGR [torr]","T_LGR [C]","mt1_LGR [us]","mt2_LGR [us]","T_ECpre [C]","T_EC1 [C]","T_EC2 [C]","p_inlet [hPa]","p_in [hPa]","p_out [hPa]","T_inlet [C]","RH_inlet [%]","dwpt_inlet [C]","T_vent [C]","RH_vent [%]","dwpt_vent [C]","flow_vent [l min-1]","flow_inlet [l min-1]","dwpt_sample [C]","T_room [C]"
2012-01-06 00:00:00,0.0,1.9425,0.0016,404.44,0.20,-1.0,0.0,138.14,27.77,24.59,36.29,0.04,-272.74,-272.74,-47,550,-938,22.3,0.9,-37.9,22.3,0.9,-37.5,5.73,2.36,-33.9,27.2
2012-01-06 00:01:00,0.0,1.9425,0.0013,404.53,0.27,-1.0,0.0,138.14,27.76,24.59,36.29,0.04,-272.74,-272.74,-46,550,-938,22.3,0.9,-37.9,22.3,0.9,-37.7,5.73,2.38,-33.9,27.2
2012-01-06 00:02:00,0.0,1.9420,0.0011,404.45,0.23,-1.0,0.0,138.14,27.76,24.59,36.29,0.04,-272.74,-272.74,-47,550,-938,22.3,0.9,-38.0,22.3,0.9,-37.7,5.73,2.55,-33.9,27.2
2012-01-06 00:03:00,0.0,1.9416,0.0010,404.40,0.22,-1.0,0.0,138.14,27.76,24.59,36.29,0.04,-272.74,-272.74,-47,550,-938,22.3,0.8,-38.1,22.3,0.9,-37.7,5.73,2.39,-33.9,27.2
2012-01-06 00:04:00,0.0,1.9415,0.0010,404.26,0.25,-1.0,0.0,138.14,27.76,24.59,36.29,0.04,-272.74,-272.74,-46,550,-938,22.2,0.8,-38.3,22.3,0.9,-37.7,5.73,2.36,-33.9,27.2
2012-01-06 00:05:00,0.0,1.9420,0.0010,404.43,0.24,-1.0,0.0,138.14,27.75,24.59,36.28,0.04,-272.74,-272.74,-46,550,-938,22.3,0.8,-38.3,22.3,0.9,-37.9,5.73,2.54,-33.9,27.2
2012-01-06 00:06:00,0.0,1.9425,0.0009,404.32,0.22,-1.0,0.0,138.14,27.75,24.59,36.29,0.04,-272.74,-272.74,-47,550,-938,22.2,0.8,-38.3,22.3,0.9,-38.0,5.73,2.41,-33.9,27.2
2012-01-06 00:07:00,0.0,1.9427,0.0009,404.34,0.19,-1.0,0.0,138.14,27.75,24.59,36.28,0.04,-272.74,-272.74,-47,550,-938,22.3,0.8,-38.4,22.3,0.9,-37.9,5.73,2.35,-33.9,27.2
2012-01-06 00:08:00,0.0,1.9425,0.0008,404.31,0.26,-1.0,0.0,138.14,27.74,24.59,36.29,0.04,-272.74,-272.74,-46,550,-938,22.2,0.8,-38.3,22.2,0.9,-38.0,5.73,2.54,-33.9,27.2
2012-01-06 00:09:00,0.0,1.9421,0.0009,404.33,0.25,-1.0,0.0,138.14,27.74,24.59,36.29,0.04,-272.74,-272.74,-47,550,-938,22.2,0.8,-38.3,22.2,0.9,-38.0,5.73,2.44,-34.0,27.1
2012-01-06 00:10:00,0.0,1.9429,0.0009,404.38,0.26,-1.0,0.0,138.14,27.73,24.59,36.28,0.04,-272.74,-272.74,-47,549,-938,22.2,0.8,-38.4,22.3,0.9,-38.0,5.73,2.33,-34.0,27.2
2012-01-06 00:11:00,0.0,1.9428,0.0009,404.37,0.22,-1.0,0.0,138.14,27.73,24.59,36.29,0.04,-272.74,-272.74,-47,550,-938,22.2,0.8,-38.7,22.2,0.9,-38.0,5.73,2.52,-34.0,27.2
2012-01-06 00:12:00,0.0,1.9422,0.0008,404.36,0.27,-1.0,0.0,138.14,27.73,24.59,36.29,0.04,-272.74,-272.74,-46,550,-938,22.2,0.8,-38.5,22.2,0.9,-38.0,5.73,2.46,-34.0,27.2
2012-01-06 00:13:00,0.0,1.9422,0.0009,404.34,0.22,-1.0,0.0,138.14,27.72,24.59,36.28,0.04,-272.74,-272.74,-47,550,-938,22.2,0.8,-38.5,22.2,0.9,-38.0,5.73,2.32,-34.0,27.2
2012-01-06 00:14:00,0.0,1.9427,0.0009,404.38,0.24,-1.0,0.0,138.14,27.72,24.59,36.29,0.04,-272.74,-272.74,-47,550,-938,22.2,0.8,-38.5,22.2,0.9,-38.0,5.73,2.51,-34.0,27.2
2012-01-06 00:15:00,0.0,1.9423,0.0009,404.34,0.23,-1.0,0.0,138.14,27.71,24.59,36.28,0.04,-272.75,-272.74,-47,550,-938,22.2,0.8,-38.7,22.2,0.8,-38.1,5.73,2.47,-34.0,27.2
2012-01-06 00:16:00,0.0,1.9426,0.0008,404.47,0.23,-1.0,0.0,138.14,27.71,24.59,36.28,0.04,-272.74,-272.74,-46,550,-938,22.2,0.8,-38.7,22.2,0.9,-38.0,5.73,2.32,-34.0,27.1
2012-01-06 00:17:00,0.0,1.9430,0.0009,404.50,0.23,-1.0,0.0,138.14,27.71,24.59,36.29,0.04,-272.74,-272.74,-47,549,-938,22.2,0.8,-38.5,22.2,0.9,-38.0,5.73,2.49,-34.0,27.2
2012-01-06 00:18:00,0.0,1.9417,0.0010,404.38,0.26,-1.0,0.0,138.14,27.70,24.59,36.28,0.04,-272.74,-272.74,-47,550,-938,22.2,0.8,-38.3,22.2,0.9,-38.0,5.73,2.50,-33.9,27.2
2012-01-06 00:19:00,0.0,1.9424,0.0011,404.52,0.19,-1.0,0.0,138.14,27.70,24.59,36.28,0.04,-272.74,-272.74,-46,550,-938,22.2,0.8,-38.3,22.2,0.8,-38.1,5.73,2.32,-34.0,27.2
2012-01-06 00:20:00,0.0,1.9428,0.0010,404.59,0.26,-1.0,0.0,138.14,27.70,24.59,36.28,0.04,-272.74,-272.74,-46,550,-938,22.2,0.8,-38.5,22.2,0.9,-38.0,5.73,2.47,-34.0,27.2
2012-01-06 00:21:00,0.0,1.9431,0.0011,404.50,0.24,-1.0,0.0,138.14,27.69,24.59,36.28,0.04,-272.74,-272.73,-47,549,-938,22.2,0.8,-38.5,22.2,0.9,-38.0,5.73,2.51,-34.0,27.2
2012-01-06 00:22:00,0.0,1.9431,0.0009,404.58,0.25,-1.0,0.0,138.14,27.69,24.59,36.28,0.04,-272.74,-272.75,-47,550,-938,22.2,0.8,-38.4,22.2,0.9,-38.0,5.73,2.32,-34.0,27.2
2012-01-06 00:23:00,0.0,1.9428,0.0009,404.61,0.21,-1.0,0.0,138.14,27.69,24.59,36.29,0.04,-272.74,-272.74,-46,549,-938,22.2,0.8,-38.6,22.2,0.9,-38.0,5.73,2.46,-34.0,27.2
2012-01-06 00:24:00,0.0,1.9428,0.0011,405.08,0.28,-1.0,0.0,138.14,27.68,24.59,36.28,0.04,-272.74,-272.74,-47,550,-938,22.2,0.8,-38.7,22.2,0.9,-38.0,5.73,2.52,-34.0,27.2
2012-01-06 00:25:00,0.0,1.9427,0.0009,404.73,0.24,-1.0,0.0,138.14,27.68,24.59,36.29,0.04,-272.74,-272.74,-47,549,-938,22.2,0.8,-38.6,22.2,0.8,-38.1,5.73,2.33,-34.0,27.2
2012-01-06 00:26:00,0.0,1.9432,0.0009,404.82,0.21,-1.0,0.0,138.14,27.68,24.59,36.28,0.04,-272.74,-272.74,-47,550,-938,22.2,0.8,-38.7,22.2,0.8,-38.1,5.73,2.44,-34.0,27.2
2012-01-06 00:27:00,0.0,1.9431,0.0011,404.91,0.29,-1.0,0.0,138.14,27.67,24.59,36.28,0.04,-272.74,-272.74,-46,550,-938,22.2,0.8,-38.7,22.2,0.8,-38.3,5.73,2.54,-34.0,27.2
2012-01-06 00:28:00,0.0,1.9430,0.0009,404.93,0.26,-1.0,0.0,138.14,27.67,24.59,36.28,0.04,-272.75,-272.74,-47,550,-938,22.2,0.8,-38.7,22.2,0.8,-38.4,5.73,2.35,-34.0,27.2
2012-01-06 00:29:00,0.0,1.9430,0.0010,405.12,0.23,-1.0,0.0,138.14,27.67,24.59,36.28,0.04,-272.74,-272.74,-47,549,-938,22.2,0.8,-38.7,22.2,0.8,-38.3,5.73,2.40,-34.0,27.2
2012-01-06 00:30:00,0.0,1.9424,0.0009,405.11,0.32,-1.0,0.0,138.14,27.67,24.59,36.29,0.04,-272.74,-272.74,-47,549,-938,22.2,0.8,-38.7,22.2,0.8,-38.3,5.73,2.55,-34.0,27.2
2012-01-06 00:31:00,0.0,1.9432,0.0013,405.19,0.22,-1.0,0.0,138.14,27.66,24.59,36.28,0.04,-272.74,-272.74,-46,550,-938,22.1,0.8,-38.7,22.2,0.8,-38.4,5.73,2.39,-34.0,27.2
2012-01-06 00:32:00,0.0,1.9438,0.0010,405.22,0.21,-1.0,0.0,138.14,27.66,24.59,36.28,0.04,-272.74,-272.74,-47,549,-938,22.1,0.8,-38.7,22.2,0.8,-38.3,5.73,2.36,-34.1,27.2
2012-01-06 00:33:00,0.0,1.9434,0.0010,405.19,0.22,-1.0,0.0,138.14,27.66,24.59,36.28,0.04,-272.74,-272.74,-47,549,-938,22.1,0.8,-38.7,22.2,0.8,-38.4,5.73,2.55,-34.1,27.1
2012-01-06 00:34:00,0.0,1.9429,0.0009,405.04,0.28,-1.0,0.0,138.14,27.65,24.59,36.29,0.04,-272.74,-272.74,-46,549,-938,22.1,0.8,-38.7,22.2,0.8,-38.4,5.73,2.41,-34.1,27.0
2012-01-06 00:35:00,0.0,1.9429,0.0010,404.84,0.20,-1.0,0.0,138.14,27.65,24.59,36.29,0.04,-272.74,-272.73,-46,549,-938,22.1,0.8,-38.7,22.2,0.8,-38.3,5.73,2.34,-34.1,27.1
2012-01-06 00:36:00,0.0,1.9430,0.0009,404.94,0.26,-1.0,0.0,138.14,27.65,24.59,36.29,0.04,-272.74,-272.73,-47,549,-938,22.1,0.8,-39.0,22.2,0.8,-38.6,5.73,2.53,-34.1,27.1
2012-01-06 00:37:00,0.0,1.9434,0.0009,405.01,0.21,-1.0,0.0,138.14,27.64,24.59,36.28,0.04,-272.74,-272.74,-47,549,-938,22.1,0.8,-39.1,22.2,0.8,-38.7,5.73,2.45,-34.1,27.1
2012-01-06 00:38:00,0.0,1.9428,0.0009,404.77,0.24,-1.0,0.0,138.14,27.64,24.59,36.29,0.04,-272.74,-272.74,-46,549,-938,22.1,0.8,-39.0,22.2,0.8,-38.7,5.73,2.33,-34.1,27.1
2012-01-06 00:39:00,0.0,1.9430,0.0009,404.76,0.19,-1.0,0.0,138.14,27.64,24.59,36.28,0.04,-272.74,-272.74,-46,549,-938,22.1,0.8,-39.0,22.2,0.8,-38.7,5.73,2.51,-34.1,27.1
2012-01-06 00:40:00,0.0,1.9426,0.0011,404.72,0.28,-1.0,0.0,138.14,27.63,24.59,36.28,0.04,-272.74,-272.74,-47,549,-938,22.1,0.8,-39.0,22.2,0.8,-38.7,5.73,2.49,-34.1,27.1
2012-01-06 00:41:00,0.0,1.9426,0.0009,404.64,0.24,-1.0,0.0,138.14,27.63,24.59,36.28,0.04,-272.74,-272.73,-47,549,-938,22.1,0.8,-39.0,22.1,0.8,-38.7,5.73,2.32,-34.1,27.1
2012-01-06 00:42:00,0.0,1.9426,0.0009,404.59,0.25,-1.0,0.0,138.14,27.63,24.59,36.28,0.04,-272.74,-272.73,-46,549,-938,22.1,0.8,-39.0,22.1,0.8,-38.7,5.73,2.47,-34.1,27.1
2012-01-06 00:43:00,0.0,1.9438,0.0010,404.97,0.27,-1.0,0.0,138.14,27.62,24.59,36.28,0.04,-272.74,-272.74,-46,549,-938,22.1,0.8,-39.0,22.1,0.8,-38.7,5.73,2.52,-34.1,27.1
2012-01-06 00:44:00,0.0,1.9447,0.0012,404.97,0.25,-1.0,0.0,138.14,27.62,24.58,36.27,0.04,-272.74,-272.74,-47,550,-938,22.1,0.8,-39.0,22.1,0.8,-38.7,5.73,2.33,-34.1,27.0
2012-01-06 00:45:00,0.0,1.9454,0.0010,405.03,0.21,-1.0,0.0,138.14,27.62,24.59,36.28,0.04,-272.74,-272.74,-47,549,-938,22.1,0.8,-39.1,22.1,0.8,-38.7,5.73,2.44,-34.1,27.1
2012-01-06 00:46:00,0.0,1.9451,0.0010,404.97,0.26,-1.0,0.0,138.14,27.61,24.59,36.28,0.04,-272.74,-272.74,-46,549,-938,22.1,0.8,-39.1,22.1,0.8,-38.7,5.73,2.53,-34.2,27.1
2012-01-06 00:47:00,0.0,1.9444,0.0009,405.04,0.23,-1.0,0.0,138.14,27.61,24.59,36.28,0.04,-272.74,-272.74,-46,549,-938,22.1,0.8,-38.8,22.1,0.8,-38.5,5.73,2.35,-34.2,27.1
2012-01-06 00:48:00,0.0,1.9450,0.0010,405.21,0.23,-1.0,0.0,138.14,27.61,24.58,36.27,0.04,-272.74,-272.75,-47,549,-938,22.1,0.8,-38.6,22.1,0.8,-38.4,5.73,2.40,-34.2,27.1
2012-01-06 00:49:00,0.0,1.9448,0.0009,405.10,0.22,-1.0,0.0,138.14,27.60,24.59,36.28,0.04,-272.74,-272.75,-47,549,-938,22.1,0.8,-38.6,22.1,0.8,-38.4,5.73,2.55,-34.2,27.1
2012-01-06 00:50:00,0.0,1.9440,0.0012,405.09,0.24,-1.0,0.0,138.14,27.60,24.59,36.28,0.04,-272.74,-272.74,-46,549,-938,22.1,0.8,-38.7,22.1,0.8,-38.4,5.73,2.38,-34.2,27.0
2012-01-06 00:51:00,0.0,1.9438,0.0010,404.98,0.20,-1.0,0.0,138.14,27.60,24.59,36.28,0.04,-272.74,-272.74,-47,549,-938,22.1,0.8,-38.6,22.1,0.8,-38.4,5.73,2.37,-34.2,27.0
2012-01-06 00:52:00,0.0,1.9441,0.0010,404.89,0.17,-1.0,0.0,138.14,27.60,24.58,36.28,0.04,-272.74,-272.74,-47,549,-938,22.1,0.8,-38.7,22.1,0.8,-38.5,5.73,2.55,-34.2,27.0
2012-01-06 00:53:00,0.0,1.9457,0.0019,404.92,0.21,-1.0,0.0,138.14,27.59,24.59,36.28,0.04,-272.74,-272.74,-47,549,-938,22.1,0.8,-39.0,22.1,0.8,-38.7,5.73,2.42,-34.2,27.0
2012-01-06 00:54:00,0.0,1.9465,0.0011,405.06,0.23,-1.0,0.0,138.14,27.59,24.59,36.27,0.04,-272.73,-272.74,-46,549,-938,22.1,0.8,-39.0,22.1,0.8,-38.7,5.73,2.34,-34.2,27.0
2012-01-06 00:55:00,0.0,1.9449,0.0011,405.03,0.23,-1.0,0.0,138.14,27.59,24.59,36.28,0.04,-272.73,-272.74,-47,549,-938,22.1,0.8,-39.0,22.1,0.8,-38.7,5.73,2.53,-34.2,27.0
2012-01-06 00:56:00,0.0,1.9436,0.0010,404.96,0.22,-1.0,0.0,138.14,27.58,24.59,36.28,0.04,-272.73,-272.75,-47,549,-938,22.1,0.8,-39.0,22.1,0.8,-38.8,5.73,2.46,-34.2,27.1
2012-01-06 00:57:00,0.0,1.9429,0.0009,405.04,0.20,-1.0,0.0,138.14,27.58,24.59,36.27,0.04,-272.74,-272.74,-47,549,-938,22.1,0.8,-39.1,22.1,0.8,-38.7,5.73,2.32,-34.2,27.1
2012-01-06 00:58:00,0.0,1.9434,0.0009,405.02,0.23,-1.0,0.0,138.14,27.57,24.59,36.27,0.04,-272.74,-272.74,-46,549,-938,22.1,0.8,-39.1,22.1,0.8,-38.7,5.73,2.50,-34.2,27.1
2012-01-06 00:59:00,0.0,1.9432,0.0010,404.95,0.26,-1.0,0.0,138.14,27.57,24.58,36.28,0.04,-272.74,-272.74,-47,549,-938,22.1,0.8,-39.2,22.1,0.8,-38.8,5.73,2.51,-34.2,27.1
2012-01-06 01:00:00,0.0,1.9430,0.0010,404.90,0.23,-1.0,0.0,138.14,27.56,24.58,36.28,0.04,-272.74,-272.74,-47,549,-938,22.1,0.8,-39.1,22.1,0.8,-38.7,5.73,2.33,-34.3,27.0
2012-01-06 01:01:00,0.0,1.9426,0.0010,404.96,0.21,-1.0,0.0,138.15,27.56,24.59,36.28,0.04,-272.75,-272.74,-47,549,-938,22.1,0.8,-39.0,22.1,0.8,-38.8,5.73,2.44,-34.3,27.0
2012-01-06 01:02:00,0.0,1.9434,0.0011,405.02,0.20,-1.0,0.0,138.14,27.56,24.58,36.27,0.04,-272.74,-272.74,-46,549,-938,22.1,0.8,-39.1,22.1,0.8,-38.8,5.73,2.54,-34.2,27.0
2012-01-06 01:03:00,0.0,1.9431,0.0009,404.90,0.22,-1.0,0.0,138.15,27.56,24.59,36.28,0.04,-272.74,-272.74,-47,549,-938,22.0,0.8,-39.1,22.1,0.8,-38.7,5.73,2.34,-34.2,27.0
2012-01-06 01:04:00,0.0,1.9428,0.0010,404.88,0.27,-1.0,0.0,138.14,27.55,24.59,36.28,0.04,-272.74,-272.74,-47,549,-938,22.1,0.8,-39.0,22.1,0.8,-38.7,5.73,2.41,-34.3,27.0
2012-01-06 01:05:00,0.0,1.9431,0.0009,404.90,0.25,-1.0,0.0,138.15,27.55,24.59,36.27,0.04,-272.74,-272.74,-47,549,-938,22.0,0.8,-38.8,22.1,0.8,-38.7,5.73,2.55,-34.3,27.0
2012-01-06 01:06:00,0.0,1.9435,0.0008,404.96,0.24,-1.0,0.0,138.15,27.55,24.59,36.28,0.04,-272.74,-272.75,-46,549,-938,22.0,0.8,-38.9,22.1,0.8,-38.7,5.73,2.39,-34.3,27.0
2012-01-06 01:07:00,0.0,1.9434,0.0008,404.90,0.25,-1.0,0.0,138.14,27.55,24.59,36.28,0.04,-272.74,-272.74,-47,549,-938,22.0,0.8,-38.8,22.1,0.8,-38.5,5.73,2.36,-34.3,27.0
2012-01-06 01:08:00,0.0,1.9435,0.0009,404.97,0.23,-1.0,0.0,138.14,27.54,24.59,36.27,0.04,-272.74,-272.74,-47,549,-938,22.1,0.8,-38.7,22.1,0.8,-38.4,5.73,2.54,-34.3,27.0
2012-01-06 01:09:00,0.0,1.9433,0.0009,404.91,0.22,-1.0,0.0,138.14,27.54,24.59,36.28,0.04,-272.74,-272.74,-46,549,-938,22.0,0.8,-38.6,22.1,0.8,-38.2,5.73,2.42,-34.3,27.0
2012-01-06 01:10:00,0.0,1.9436,0.0010,405.00,0.26,-1.0,0.0,138.15,27.54,24.59,36.27,0.04,-272.74,-272.74,-46,549,-938,22.1,0.8,-38.4,22.1,0.9,-38.1,5.73,2.34,-34.3,27.0
2012-01-06 01:11:00,0.0,1.9439,0.0009,404.96,0.23,-1.0,0.0,138.15,27.53,24.58,36.28,0.04,-272.74,-272.74,-47,549,-938,22.0,0.8,-38.3,22.1,0.9,-37.9,5.73,2.54,-34.3,27.0
2012-01-06 01:12:00,0.0,1.9442,0.0011,405.06,0.23,-1.0,0.0,138.14,27.53,24.59,36.27,0.04,-272.74,-272.74,-47,549,-938,22.0,0.9,-38.1,22.1,0.9,-37.8,5.73,2.44,-34.3,27.0
2012-01-06 01:13:00,0.0,1.9443,0.0009,405.08,0.21,-1.0,0.0,138.14,27.52,24.58,36.28,0.04,-272.74,-272.73,-46,549,-938,22.0,0.9,-38.0,22.1,0.9,-37.8,5.73,2.33,-34.3,27.0
2012-01-06 01:14:00,0.0,1.9436,0.0012,405.04,0.21,-1.0,0.0,138.14,27.52,24.59,36.28,0.04,-272.74,-272.74,-46,549,-938,22.0,0.9,-37.8,22.1,0.9,-37.5,5.73,2.53,-34.3,27.0
2012-01-06 01:15:00,0.0,1.9440,0.0009,405.02,0.20,-1.0,0.0,138.15,27.52,24.59,36.28,0.04,-272.74,-272.74,-47,549,-938,22.0,0.9,-37.7,22.1,0.9,-37.5,5.73,2.46,-34.4,27.0
2012-01-06 01:16:00,0.0,1.9438,0.0010,405.01,0.25,-1.0,0.0,138.15,27.51,24.59,36.28,0.04,-272.74,-272.74,-47,549,-938,22.0,0.9,-37.7,22.1,0.9,-37.2,5.73,2.32,-34.4,27.0
2012-01-06 01:17:00,0.0,1.9442,0.0009,404.87,0.26,-1.0,0.0,138.15,27.51,24.58,36.28,0.04,-272.74,-272.74,-46,549,-938,22.0,0.9,-37.5,22.1,0.9,-37.2,5.73,2.50,-34.4,27.0
2012-01-06 01:18:00,0.0,1.9439,0.0010,405.09,0.24,-1.0,0.0,138.15,27.51,24.59,36.27,0.04,-272.74,-272.74,-46,549,-938,22.0,0.9,-37.5,22.1,0.9,-37.1,5.73,2.50,-34.4,26.9
2012-01-06 01:19:00,0.0,1.9439,0.0008,405.18,0.20,-1.0,0.0,138.15,27.50,24.59,36.27,0.04,-272.74,-272.74,-46,549,-938,22.0,15.2,-6.8,22.1,15.0,-7.8,5.73,2.32,-34.4,26.9
2012-01-06 01:20:00,0.0,1.9439,0.0009,405.24,0.18,-1.0,0.0,138.15,27.50,24.58,36.27,0.04,-272.74,-272.74,-46,549,-938,22.0,7.6,-15.0,22.0,8.2,-14.0,5.73,2.47,-34.4,26.9
2012-01-06 01:21:00,0.0,1.9436,0.0011,405.17,0.23,-1.0,0.0,138.15,27.50,24.58,36.27,0.04,-272.74,-272.74,-46,549,-938,22.0,3.8,-22.6,22.0,4.0,-22.0,5.73,2.52,-34.4,26.9
2012-01-06 01:22:00,0.0,1.9437,0.0010,405.09,0.26,-1.0,0.0,138.15,27.49,24.59,36.28,0.04,-272.74,-272.73,-46,549,-938,22.0,1.9,-30.6,22.0,2.0,-29.7,5.73,2.34,-34.4,26.9
2012-01-06 01:23:00,0.0,1.9439,0.0011,405.14,0.22,-1.0,0.0,138.15,27.49,24.58,36.28,0.04,-272.74,-272.74,-47,549,-938,22.0,1.1,-35.9,22.0,1.2,-35.2,5.73,2.42,-34.4,26.9
2012-01-06 01:24:00,0.0,1.9441,0.0011,405.18,0.25,-1.0,0.0,138.15,27.49,24.59,36.27,0.04,-272.74,-272.74,-46,549,-938,22.0,0.9,-37.3,22.0,1.0,-36.7,5.73,2.55,-34.4,26.9
2012-01-06 01:25:00,0.0,1.9440,0.0011,405.16,0.23,-1.0,0.0,138.15,27.49,24.59,36.27,0.04,-272.74,-272.75,-46,549,-938,22.0,0.9,-37.9,22.0,0.9,-37.4,5.73,2.38,-34.3,26.9
2012-01-06 01:26:00,0.0,1.9440,0.0010,405.13,0.24,-1.0,0.0,138.15,27.48,24.59,36.28,0.04,-272.74,-272.74,-46,549,-938,22.0,0.8,-38.3,22.0,0.9,-37.8,5.73,2.36,-34.4,26.9
2012-01-06 01:27:00,0.0,1.9434,0.0010,405.16,0.25,-1.0,0.0,138.15,27.48,24.59,36.27,0.04,-272.74,-272.74,-47,549,-938,22.0,0.8,-38.5,22.0,0.9,-37.9,5.73,2.55,-34.3,26.9
2012-01-06 01:28:00,0.0,1.9437,0.0010,405.15,0.24,-1.0,0.0,138.15,27.48,24.58,36.27,0.04,-272.74,-272.74,-46,549,-938,22.0,0.8,-38.5,22.0,0.9,-38.1,5.73,2.42,-34.3,26.9
2012-01-06 01:29:00,0.0,1.9433,0.0008,405.17,0.21,-1.0,0.0,138.15,27.47,24.59,36.27,0.04,-272.74,-272.74,-46,549,-938,22.0,0.8,-38.8,22.0,0.8,-38.2,5.73,2.34,-34.3,26.9
2012-01-06 01:30:00,0.0,1.9444,0.0011,405.14,0.22,-1.0,0.0,138.15,27.47,24.59,36.27,0.04,-272.74,-272.74,-46,549,-938,22.0,0.8,-38.8,22.0,0.8,-38.4,5.73,2.51,-34.3,26.8
2012-01-06 01:31:00,0.0,1.9432,0.0009,405.16,0.24,-1.0,0.0,138.15,27.46,24.59,36.27,0.04,-272.74,-272.74,-46,549,-938,22.0,0.8,-38.8,22.0,0.8,-38.5,5.73,2.49,-34.2,26.8
2012-01-06 01:32:00,0.0,1.9435,0.0009,405.16,0.22,-1.0,0.0,138.15,27.46,24.58,36.27,0.04,-272.74,-272.74,-46,549,-938,22.0,1.4,-35.3,22.0,1.3,-35.7,5.73,2.33,-34.2,26.9
2012-01-06 01:33:00,0.0,1.9437,0.0010,405.14,0.23,-1.0,0.0,138.15,27.46,24.58,36.27,0.04,-272.74,-272.74,-46,549,-938,22.0,2.7,-26.8,22.0,2.9,-26.1,5.73,2.46,-34.2,26.9
2012-01-06 01:34:00,0.0,1.9429,0.0008,405.07,0.25,-1.0,0.0,138.15,27.46,24.59,36.28,0.04,-272.75,-272.74,-46,549,-938,22.0,1.2,-34.9,22.0,1.3,-34.3,5.73,2.53,-34.2,26.9
2012-01-06 01:35:00,0.0,1.9434,0.0012,405.08,0.24,-1.0,0.0,138.15,27.45,24.58,36.27,0.04,-272.74,-272.74,-46,549,-938,22.0,0.9,-38.2,22.0,0.9,-37.6,5.73,2.34,-34.1,26.9
2012-01-06 01:36:00,0.0,1.9431,0.0009,405.12,0.23,-1.0,0.0,138.15,27.45,24.59,36.27,0.04,-272.74,-272.74,-46,549,-938,22.0,0.8,-39.2,22.0,0.8,-38.8,5.73,2.41,-34.1,26.8
2012-01-06 01:37:00,0.0,1.9432,0.0009,405.10,0.22,-1.0,0.0,138.15,27.45,24.58,36.27,0.04,-272.74,-272.74,-46,549,-938,21.9,0.7,-39.5,22.0,0.8,-39.1,5.73,2.54,-34.1,26.9
2012-01-06 01:38:00,0.0,1.9436,0.0008,405.21,0.21,-1.0,0.0,138.15,27.44,24.58,36.27,0.04,-272.73,-272.74,-46,549,-938,21.9,0.7,-39.8,22.0,0.8,-39.2,5.73,2.38,-34.1,26.9
2012-01-06 01:39:00,0.0,1.9433,0.0010,405.19,0.21,-1.0,0.0,138.15,27.44,24.59,36.27,0.04,-272.74,-272.74,-46,548,-938,21.9,0.7,-39.8,22.0,0.7,-39.5,5.73,2.37,-34.0,26.9
2012-01-06 01:40:00,0.0,1.9437,0.0010,405.05,0.20,-1.0,0.0,138.15,27.44,24.58,36.27,0.04,-272.74,-272.74,-46,549,-938,21.9,0.7,-39.9,22.0,0.7,-39.5,5.73,2.55,-34.0,26.9
2012-01-06 01:41:00,0.0,1.9436,0.0009,405.15,0.21,-1.0,0.0,138.15,27.43,24.59,36.27,0.04,-272.74,-272.74,-46,549,-938,21.9,0.7,-40.2,22.0,0.7,-39.8,5.73,2.42,-34.0,26.9
2012-01-06 01:42:00,0.0,1.9439,0.0010,405.19,0.24,-1.0,0.0,138.15,27.43,24.58,36.27,0.04,-272.74,-272.74,-46,549,-938,21.9,0.7,-40.1,22.0,0.7,-39.8,5.73,2.34,-34.0,26.8
2012-01-06 01:43:00,0.0,1.9436,0.0010,405.14,0.26,-1.0,0.0,138.15,27.43,24.58,36.27,0.04,-272.74,-272.74,-46,549,-938,21.9,0.7,-40.2,22.0,0.7,-39.9,5.73,2.52,-34.0,26.8
2012-01-06 01:44:00,0.0,1.9437,0.0008,405.12,0.25,-1.0,0.0,138.15,27.42,24.59,36.27,0.04,-272.74,-272.74,-46,549,-938,21.9,0.7,-40.1,22.0,0.7,-39.9,5.73,2.47,-33.9,26.8
2012-01-06 01:45:00,0.0,1.9437,0.0009,405.20,0.23,-1.0,0.0,138.15,27.42,24.59,36.27,0.04,-272.74,-272.74,-46,549,-938,21.9,0.7,-40.2,22.0,0.7,-39.9,5.73,2.32,-33.9,26.9
2012-01-06 01:46:00,0.0,1.9438,0.0009,405.16,0.23,-1.0,0.0,138.15,27.42,24.59,36.27,0.04,-272.74,-272.74,-46,549,-938,21.9,0.7,-40.2,21.9,0.7,-39.9,5.73,2.49,-33.9,26.8
2012-01-06 01:47:00,0.0,1.9437,0.0011,405.15,0.22,-1.0,0.0,138.15,27.41,24.58,36.28,0.04,-272.74,-272.74,-46,549,-938,21.9,0.7,-40.2,21.9,0.7,-39.8,5.73,2.51,-33.8,26.9
2012-01-06 01:48:00,0.0,1.9434,0.0011,405.18,0.24,-1.0,0.0,138.15,27.41,24.59,36.27,0.04,-272.74,-272.74,-46,549,-938,21.9,0.7,-40.2,21.9,0.7,-39.9,5.73,2.33,-33.9,26.9
2012-01-06 01:49:00,0.0,1.9435,0.0008,405.03,0.23,-1.0,0.0,138.15,27.41,24.59,36.28,0.04,-272.74,-272.74,-46,549,-938,21.9,0.7,-40.2,21.9,0.7,-39.9,5.73,2.45,-33.9,26.9
2012-01-06 01:50:00,0.0,1.9434,0.0008,405.15,0.21,-1.0,0.0,138.15,27.40,24.58,36.27,0.04,-272.74,-272.74,-46,548,-938,21.9,0.7,-40.2,21.9,0.7,-39.8,5.73,2.54,-33.8,26.9
2012-01-06 01:51:00,0.0,1.9440,0.0010,405.22,0.24,-1.0,0.0,138.15,27.40,24.58,36.27,0.04,-272.73,-272.74,-46,548,-938,21.9,0.7,-40.2,21.9,0.7,-39.9,5.73,2.35,-33.8,26.9
2012-01-06 01:52:00,0.0,1.9439,0.0010,405.06,0.27,-1.0,0.0,138.15,27.40,24.58,36.28,0.04,-272.74,-272.74,-46,549,-938,21.9,0.7,-40.2,21.9,0.7,-39.9,5.73,2.41,-33.8,26.9
2012-01-06 01:53:00,0.0,1.9437,0.0010,405.11,0.23,-1.0,0.0,138.15,27.40,24.58,36.27,0.04,-272.73,-272.74,-46,549,-938,21.9,0.7,-40.2,21.9,0.7,-39.8,5.73,2.55,-33.8,26.8
2012-01-06 01:54:00,0.0,1.9440,0.0008,404.99,0.24,-1.0,0.0,138.15,27.39,24.58,36.28,0.04,-272.73,-272.74,-46,549,-938,21.9,0.7,-40.2,21.9,0.7,-39.9,5.73,2.38,-33.8,26.8
2012-01-06 01:55:00,0.0,1.9441,0.0009,405.09,0.24,-1.0,0.0,138.15,27.39,24.58,36.27,0.04,-272.74,-272.73,-46,549,-938,21.9,0.7,-40.2,22.0,0.7,-39.9,5.73,2.37,-33.8,26.8
2012-01-06 01:56:00,0.0,1.9444,0.0009,405.09,0.21,-1.0,0.0,138.15,27.38,24.58,36.27,0.04,-272.74,-272.74,-46,548,-938,21.9,0.7,-40.1,21.9,0.7,-39.8,5.73,2.55,-33.8,26.8
2012-01-06 01:57:00,0.0,1.9446,0.0011,405.18,0.27,-1.0,0.0,138.15,27.38,24.58,36.27,0.04,-272.75,-272.74,-46,549,-938,21.9,0.7,-39.8,21.9,0.7,-39.5,5.73,2.43,-33.8,26.8
2012-01-06 01:58:00,0.0,1.9442,0.0011,405.07,0.20,-1.0,0.0,138.15,27.38,24.59,36.28,0.04,-272.74,-272.74,-46,549,-938,21.9,0.7,-39.9,21.9,0.7,-39.5,5.73,2.34,-33.8,26.8
2012-01-06 01:59:00,0.0,1.9444,0.0010,405.20,0.28,-1.0,0.0,138.15,27.37,24.58,36.27,0.04,-272.74,-272.74,-46,548,-938,21.9,0.7,-39.9,21.9,0.7,-39.5,5.73,2.53,-33.8,26.8
2012-01-06 02:00:00,0.0,1.9440,0.0010,405.13,0.23,-1.0,0.0,138.15,27.37,24.59,36.27,0.04,-272.74,-272.74,-46,549,-938,21.9,0.7,-39.8,21.9,0.7,-39.5,5.73,2.46,-33.8,26.8
2012-01-06 02:01:00,0.0,1.9445,0.0010,405.15,0.23,-1.0,0.0,138.15,27.37,24.58,36.27,0.04,-272.74,-272.75,-46,549,-938,21.9,0.7,-39.8,21.9,0.7,-39.5,5.73,2.32,-33.8,26.7
2012-01-06 02:02:00,0.0,1.9441,0.0009,405.16,0.22,-1.0,0.0,138.15,27.37,24.59,36.27,0.04,-272.74,-272.74,-46,548,-938,21.9,0.7,-39.8,21.9,0.8,-39.2,5.73,2.51,-33.8,26.8
2012-01-06 02:03:00,0.0,1.9441,0.0010,405.01,0.25,-1.0,0.0,138.15,27.36,24.59,36.28,0.04,-272.74,-272.74,-46,548,-938,21.9,0.7,-39.8,21.9,0.8,-39.2,5.73,2.50,-33.8,26.8
2012-01-06 02:04:00,0.0,1.9443,0.0010,405.23,0.22,-1.0,0.0,138.15,27.36,24.58,36.26,0.04,-272.74,-272.74,-46,549,-938,21.9,0.7,-39.7,21.9,0.8,-39.2,5.73,2.33,-33.8,26.8
2012-01-06 02:05:00,0.0,1.9446,0.0012,405.12,0.21,-1.0,0.0,138.15,27.35,24.59,36.27,0.04,-272.74,-272.74,-46,549,-938,21.9,0.7,-39.5,21.9,0.8,-39.1,5.73,2.47,-33.8,26.8
2012-01-06 02:06:00,0.0,1.9445,0.0011,405.23,0.30,-1.0,0.0,138.15,27.35,24.58,36.27,0.04,-272.73,-272.74,-46,548,-938,21.9,0.7,-39.5,21.9,0.8,-39.2,5.73,2.52,-33.8,26.7
2012-01-06 02:07:00,0.0,1.9444,0.0009,405.15,0.27,-1.0,0.0,138.15,27.34,24.59,36.27,0.04,-272.74,-272.74,-46,548,-938,21.9,0.7,-39.5,21.9,0.8,-39.2,5.73,2.33,-33.8,26.7
2012-01-06 02:08:00,0.0,1.9447,0.0011,405.14,0.26,-1.0,0.0,138.15,27.34,24.58,36.27,0.04,-272.74,-272.74,-46,549,-938,21.9,0.7,-39.5,21.9,0.8,-39.1,5.73,2.45,-33.8,26.7
2012-01-06 02:09:00,0.0,1.9445,0.0010,405.11,0.22,-1.0,0.0,138.15,27.34,24.58,36.27,0.04,-272.74,-272.74,-46,548,-938,21.8,0.7,-39.6,21.9,0.8,-39.2,5.73,2.54,-33.8,26.7
2012-01-06 02:10:00,0.0,1.9447,0.0010,405.15,0.23,-1.0,0.0,138.15,27.33,24.58,36.27,0.04,-272.74,-272.74,-46,548,-938,21.8,0.7,-39.7,21.9,0.8,-39.1,5.73,2.35,-33.8,26.7
2012-01-06 02:11:00,0.0,1.9447,0.0010,405.10,0.27,-1.0,0.0,138.15,27.33,24.58,36.27,0.04,-272.74,-272.74,-46,548,-938,21.8,0.7,-39.8,21.9,0.8,-39.2,5.73,2.41,-33.8,26.8
2012-01-06 02:12:00,0.0,1.9439,0.0012,405.23,0.22,-1.0,0.0,138.15,27.33,24.58,36.26,0.04,-272.74,-272.74,-46,548,-938,21.9,0.7,-39.9,21.9,0.7,-39.6,5.73,2.55,-33.8,26.7
2012-01-06 02:13:00,0.0,1.9439,0.0011,405.00,0.23,-1.0,0.0,138.15,27.33,24.58,36.28,0.04,-272.74,-272.74,-46,548,-938,21.8,0.7,-39.9,21.9,0.7,-39.5,5.73,2.39,-33.9,26.7
2012-01-06 02:14:00,0.0,1.9438,0.0013,405.09,0.22,-1.0,0.0,138.15,27.33,24.58,36.27,0.04,-272.74,-272.74,-46,548,-938,21.8,0.7,-39.9,21.9,0.7,-39.6,5.73,2.36,-33.8,26.8
2012-01-06 02:15:00,0.0,1.9442,0.0014,405.13,0.17,-1.0,0.0,138.15,27.32,24.58,36.27,0.04,-272.73,-272.74,-46,548,-938,21.8,0.7,-40.0,21.9,0.7,-39.8,5.73,2.55,-33.9,26.8
2012-01-06 02:16:00,0.0,1.9435,0.0009,405.06,0.20,-1.0,0.0,138.15,27.32,24.58,36.27,0.04,-272.74,-272.74,-46,548,-938,21.8,0.7,-40.3,21.9,0.7,-39.9,5.73,2.44,-33.9,26.7
2012-01-06 02:17:00,0.0,1.9428,0.0009,405.05,0.21,-1.0,0.0,138.15,27.32,24.59,36.27,0.04,-272.74,-272.75,-46,548,-938,21.8,0.7,-40.3,21.9,0.7,-39.9,5.73,2.33,-33.9,26.8
2012-01-06 02:18:00,0.0,1.9430,0.0011,405.06,0.20,-1.0,0.0,138.15,27.32,24.58,36.27,0.04,-272.74,-272.74,-46,548,-938,21.8,0.7,-40.3,21.9,0.7,-40.0,5.73,2.51,-33.8,26.7